| time (UTC) | temp F | wind direction | speed knots | gust knots | rain 1hr in | rain 24hr in | rain mn in | humidity % | barometer mb |
| 20260508062958 | 47 | 312 | 1.7 | 7.0 | 0.00 | 0.05 | 0.00 | 77 | 1010.9 |
| 20260508061458 | 47 | 172 | 2.6 | 6.1 | 0.00 | 0.05 | 0.00 | 77 | 1010.2 |
| 20260508055958 | 47 | 255 | 1.7 | 5.2 | 0.00 | 0.08 | 0.00 | 75 | 1010.2 |
| 20260508054457 | 48 | 81 | 2.6 | 7.0 | 0.00 | 0.08 | 0.00 | 74 | 1010.0 |
| 20260508052957 | 49 | 94 | 1.7 | 5.2 | 0.00 | 0.08 | 0.00 | 71 | 1010.1 |
| 20260508051458 | 49 | 122 | 1.7 | 6.1 | 0.00 | 0.08 | 0.00 | 70 | 1010.4 |
| 20260508050002 | 50 | 288 | 3.5 | 8.7 | 0.00 | 0.08 | 0.00 | 65 | 1010.4 |
| 20260508043000 | 50 | 82 | 0.0 | 0.9 | 0.00 | 0.08 | 0.00 | 63 | 1009.3 |
| 20260508041500 | 50 | 82 | 1.7 | 3.5 | 0.00 | 0.08 | 0.00 | 64 | 1008.9 |
| 20260508040006 | 52 | 82 | 0.0 | 0.9 | 0.00 | 0.08 | 0.00 | 58 | 1009.0 |
| 20260508034502 | 53 | 82 | 0.0 | 0.0 | 0.00 | 0.08 | 0.08 | 59 | 1008.8 |
| 20260508033001 | 54 | 82 | 0.0 | 0.9 | 0.00 | 0.08 | 0.08 | 53 | 1008.7 |
| 20260508031502 | 54 | 82 | 0.9 | 5.2 | 0.00 | 0.08 | 0.08 | 49 | 1008.7 |
| 20260508023000 | 54 | 83 | 2.6 | 5.2 | 0.00 | 0.08 | 0.08 | 50 | 1008.8 |
| 20260508021500 | 54 | 72 | 0.9 | 3.5 | 0.00 | 0.08 | 0.08 | 51 | 1009.0 |
| 20260508020000 | 54 | 72 | 0.9 | 2.6 | 0.00 | 0.08 | 0.08 | 50 | 1008.8 |
| 20260508014500 | 54 | 71 | 0.9 | 2.6 | 0.00 | 0.08 | 0.08 | 50 | 1008.7 |
| 20260508013001 | 54 | 71 | 0.0 | 3.5 | 0.00 | 0.08 | 0.08 | 49 | 1008.6 |
| 20260508011500 | 54 | 105 | 0.0 | 2.6 | 0.00 | 0.08 | 0.08 | 51 | 1008.5 |
| 20260508010000 | 53 | 105 | 0.0 | 2.6 | 0.00 | 0.32 | 0.08 | 54 | 1008.5 |
| 20260508004501 | 53 | 105 | 0.0 | 0.0 | 0.00 | 0.32 | 0.08 | 57 | 1008.3 |
| 20260508003001 | 53 | 105 | 0.0 | 2.6 | 0.00 | 0.32 | 0.08 | 55 | 1008.1 |
| 20260508001501 | 54 | 105 | 0.0 | 0.9 | 0.00 | 0.32 | 0.08 | 55 | 1008.0 |
| 20260508000001 | 55 | 105 | 0.0 | 1.7 | 0.00 | 0.32 | 0.08 | 53 | 1007.8 |
| 20260507234500 | 56 | 39 | 0.0 | 0.9 | 0.00 | 0.32 | 0.08 | 54 | 1007.7 |
| 20260507233001 | 58 | 169 | 0.0 | 0.9 | 0.00 | 0.32 | 0.08 | 51 | 1007.6 |
| 20260507231501 | 58 | 169 | 0.0 | 1.7 | 0.00 | 0.32 | 0.08 | 48 | 1007.7 |
| 20260507224501 | 59 | 122 | 0.9 | 2.6 | 0.00 | 0.32 | 0.08 | 46 | 1007.4 |
| 20260507221501 | 60 | 342 | 1.7 | 6.1 | 0.00 | 0.32 | 0.08 | 41 | 1007.5 |
| 20260507220003 | 60 | 136 | 0.9 | 1.7 | 0.00 | 0.32 | 0.08 | 42 | 1007.6 |
| 20260507214500 | 61 | 295 | 2.6 | 7.8 | 0.00 | 0.32 | 0.08 | 40 | 1007.5 |
| 20260507213000 | 61 | 271 | 2.6 | 7.0 | 0.00 | 0.32 | 0.08 | 42 | 1007.6 |
| 20260507211500 | 60 | 309 | 1.7 | 3.5 | 0.00 | 0.32 | 0.08 | 42 | 1007.5 |
| 20260507210000 | 61 | 253 | 3.5 | 8.7 | 0.00 | 0.32 | 0.08 | 38 | 1007.5 |
| 20260507204500 | 62 | 301 | 1.7 | 9.6 | 0.00 | 0.32 | 0.08 | 41 | 1007.3 |
| 20260507203000 | 62 | 295 | 2.6 | 7.0 | 0.00 | 0.32 | 0.08 | 40 | 1007.4 |
| 20260507201500 | 62 | 298 | 2.6 | 7.0 | 0.00 | 0.32 | 0.08 | 44 | 1007.5 |
| 20260507200000 | 62 | 268 | 1.7 | 5.2 | 0.00 | 0.32 | 0.08 | 41 | 1007.5 |
| 20260507193000 | 60 | 86 | 2.6 | 7.8 | 0.00 | 0.32 | 0.08 | 42 | 1007.9 |
| 20260507191459 | 60 | 275 | 1.7 | 5.2 | 0.00 | 0.32 | 0.08 | 44 | 1007.9 |
| 20260507190003 | 60 | 255 | 2.6 | 7.0 | 0.00 | 0.32 | 0.08 | 41 | 1008.1 |
| 20260507183000 | 60 | 45 | 3.5 | 9.6 | 0.00 | 0.34 | 0.08 | 39 | 1008.4 |
| 20260507181501 | 59 | 181 | 2.6 | 5.2 | 0.00 | 0.34 | 0.08 | 42 | 1008.4 |
| 20260507180002 | 59 | 122 | 2.6 | 7.8 | 0.00 | 0.34 | 0.08 | 43 | 1008.7 |
| 20260507174500 | 59 | 1 | 2.6 | 7.8 | 0.00 | 0.36 | 0.08 | 44 | 1008.9 |
| 20260507173000 | 58 | 276 | 4.3 | 9.6 | 0.00 | 0.36 | 0.08 | 44 | 1009.1 |
| 20260507171500 | 58 | 276 | 3.5 | 12.2 | 0.00 | 0.36 | 0.08 | 43 | 1009.4 |
| 20260507170002 | 57 | 93 | 2.6 | 7.0 | 0.00 | 0.36 | 0.08 | 44 | 1009.7 |
| 20260507164500 | 57 | 275 | 2.6 | 7.8 | 0.00 | 0.41 | 0.08 | 51 | 1009.7 |
| 20260507163000 | 56 | 281 | 2.6 | 7.8 | 0.00 | 0.41 | 0.08 | 47 | 1010.1 |
| 20260507161501 | 56 | 79 | 1.7 | 5.2 | 0.00 | 0.41 | 0.08 | 48 | 1010.1 |
| 20260507160000 | 56 | 359 | 2.6 | 7.8 | 0.00 | 0.45 | 0.08 | 53 | 1010.4 |
| 20260507150002 | 53 | 308 | 3.5 | 8.7 | 0.00 | 0.45 | 0.08 | 58 | 1011.1 |
| 20260507143000 | 52 | 274 | 4.3 | 8.7 | 0.00 | 0.47 | 0.08 | 62 | 1011.4 |
| 20260507141501 | 52 | 272 | 2.6 | 7.8 | 0.00 | 0.47 | 0.08 | 64 | 1011.4 |
| 20260507140000 | 52 | 271 | 2.6 | 13.0 | 0.00 | 0.47 | 0.08 | 64 | 1011.3 |
| 20260507134501 | 51 | 148 | 2.6 | 9.6 | 0.00 | 0.47 | 0.08 | 63 | 1011.5 |
| 20260507132958 | 51 | 338 | 1.7 | 10.4 | 0.00 | 0.47 | 0.08 | 67 | 1011.5 |
| 20260507131459 | 50 | 271 | 3.5 | 9.6 | 0.00 | 0.47 | 0.08 | 70 | 1011.3 |
| 20260507125958 | 50 | 291 | 2.6 | 7.0 | 0.00 | 0.47 | 0.08 | 74 | 1011.3 |
| 20260507124458 | 49 | 347 | 3.5 | 8.7 | 0.00 | 0.47 | 0.08 | 75 | 1011.2 |
| 20260507121457 | 48 | 352 | 1.7 | 6.1 | 0.00 | 0.47 | 0.08 | 83 | 1011.1 |
| 20260507120001 | 47 | 297 | 1.7 | 5.2 | 0.00 | 0.47 | 0.08 | 85 | 1011.2 |
| 20260507114500 | 47 | 275 | 1.7 | 5.2 | 0.00 | 0.47 | 0.08 | 84 | 1011.1 |
| 20260507113000 | 47 | 246 | 0.9 | 2.6 | 0.00 | 0.47 | 0.08 | 83 | 1011.0 |
| 20260507105958 | 46 | 330 | 1.7 | 6.1 | 0.00 | 0.47 | 0.08 | 83 | 1010.5 |
| 20260507104458 | 46 | 267 | 1.7 | 7.0 | 0.00 | 0.47 | 0.08 | 80 | 1010.4 |
| 20260507102958 | 46 | 273 | 0.9 | 4.3 | 0.00 | 0.47 | 0.08 | 75 | 1010.1 |
| 20260507101459 | 46 | 326 | 0.9 | 3.5 | 0.00 | 0.47 | 0.08 | 70 | 1010.0 |
| 20260507100001 | 46 | 244 | 0.9 | 2.6 | 0.00 | 0.47 | 0.08 | 66 | 1009.6 |
| 20260507094459 | 46 | 308 | 0.9 | 3.5 | 0.00 | 0.47 | 0.08 | 63 | 1009.7 |
| 20260507092959 | 46 | 304 | 0.0 | 0.9 | 0.00 | 0.47 | 0.08 | 62 | 1009.4 |
| 20260507091500 | 46 | 295 | 0.0 | 1.7 | 0.00 | 0.47 | 0.08 | 62 | 1009.3 |
| 20260507085958 | 46 | 295 | 0.0 | 2.6 | 0.00 | 0.47 | 0.08 | 62 | 1009.4 |
| 20260507084500 | 46 | 281 | 0.0 | 0.9 | 0.00 | 0.47 | 0.08 | 64 | 1009.5 |
| 20260507082959 | 47 | 281 | 0.0 | 1.7 | 0.00 | 0.47 | 0.08 | 65 | 1009.6 |
| 20260507081458 | 47 | 281 | 0.9 | 3.5 | 0.00 | 0.47 | 0.08 | 66 | 1009.7 |
| 20260507075958 | 47 | 281 | 0.9 | 2.6 | 0.00 | 0.47 | 0.08 | 69 | 1009.7 |
| 20260507074458 | 47 | 276 | 1.7 | 3.5 | 0.00 | 0.47 | 0.08 | 69 | 1009.6 |
| 20260507072959 | 47 | 207 | 0.9 | 2.6 | 0.02 | 0.47 | 0.08 | 70 | 1009.8 |
| 20260507071458 | 47 | 265 | 0.9 | 4.3 | 0.03 | 0.47 | 0.08 | 72 | 1010.0 |
| 20260507065959 | 47 | 245 | 0.9 | 2.6 | 0.05 | 0.47 | 0.08 | 74 | 1010.2 |
| 20260507064459 | 47 | 266 | 0.9 | 3.5 | 0.08 | 0.47 | 0.08 | 77 | 1010.0 |